[[{"header":{"parameterUnit":"m.s-1","parameterCategory":1,"la1":30.2991,"la2":30.254,"lo1":-89.0895,"lo2":-89.0444,"dy":0.0017,"dx":0.0017,"nx":28,"ny":28,"refTime":"2024-03-30T03:00:00:Z","depth":0,"parameterNumber":2,"parameterNumberName":"U-component_of_WINDS"},"data":[0,0,0,0,0,0,0,0,0,0,0,0,0,0,0,0,0,0,0,0,0,0,0,0,0,0,0,0,0,0,0,0,0,0,0,0,0,0,0,0,0,0,0,0,0,0,0,0,0,0,0,0,0,0,0,0,0,0,-1.1892,-1.1893,0,-1.1972,-1.1972,-1.1973,-1.2004,-1.2004,-1.2004,-1.2003,-1.2087,-1.2089,-1.2091,0,0,0,0,0,0,0,0,0,0,0,0,0,-1.1767,-1.1769,-1.1892,-1.1893,-1.1894,-1.1971,-1.1972,-1.1974,-1.2004,-1.2004,-1.2004,-1.2003,-1.2086,-1.2089,-1.2092,0,0,0,0,0,0,0,0,0,0,0,0,0,-1.1832,-1.177,-1.1891,-1.1918,-1.1921,-1.1971,-1.1973,-1.1974,-1.2004,-1.2004,-1.2004,-1.2003,-1.2085,-1.2088,-1.2092,-1.2121,0,0,-1.2103,-1.2105,0,0,0,0,0,0,0,0,-1.1828,-1.1836,-1.1913,-1.1916,-1.192,-1.1977,-1.1959,-1.2023,-1.2004,-1.1973,-1.2003,-1.2003,-1.2051,-1.2057,-1.2073,-1.2125,-1.2129,-1.2103,-1.2106,-1.2107,-1.2108,0,0,0,0,0,0,0,-1.1823,-1.1833,-1.1923,-1.1914,-1.1919,-1.1927,-1.1936,-1.1971,-1.2013,-1.1976,-1.1978,-1.1987,-1.2052,-1.2069,-1.2075,-1.213,-1.2103,-1.2107,-1.2109,-1.211,-1.2211,-1.2211,0,0,0,0,0,0,-1.1814,-1.1829,-1.1921,-1.1926,-1.1872,-1.1929,-1.1939,-1.1959,-1.2012,-1.202,-1.1987,-1.1988,-1.2063,-1.2071,-1.2078,-1.2116,-1.2107,-1.2111,-1.2113,-1.221,-1.2211,-1.2211,0,0,0,0,0,0,-1.1812,-1.1822,-1.1918,-1.1878,-1.1891,-1.1932,-1.1954,-1.1961,-1.1978,-1.2021,-1.2029,-1.1997,-1.2063,-1.2073,-1.211,-1.2119,-1.2112,-1.2116,-1.221,-1.221,-1.2211,-1.2192,0,0,0,0,0,0,-1.1808,-1.1821,-1.1832,-1.1878,-1.1893,-1.1948,-1.1955,-1.1963,-1.1984,-1.1986,-1.2032,-1.2039,-1.2064,-1.2105,-1.2114,-1.2124,-1.2118,-1.2209,-1.221,-1.2211,-1.2192,-1.2192,-1.2192,0,0,0,0,0,-1.1803,-1.1824,-1.1833,-1.1844,-1.1908,-1.1948,-1.1957,-1.1984,-1.1985,-1.1996,-1.2024,-1.2038,-1.2117,-1.2108,-1.2119,-1.213,-1.2209,-1.221,-1.2211,-1.2192,-1.2192,-1.2192,0,0,0,0,0,0,-1.1779,-1.183,-1.1841,-1.1877,-1.1908,-1.1953,-1.1969,-1.1983,-1.2015,-1.2016,-1.2048,-1.2059,-1.2093,-1.2116,-1.2105,-1.2162,-1.2164,-1.2167,-1.2146,-1.2146,-1.2146,-1.214,-1.2121,0,0,0,0,0,-1.1777,-1.1806,-1.185,-1.1877,-1.1892,-1.1928,-1.1947,-1.1965,-1.1999,-1.2012,-1.2043,-1.2075,-1.2108,-1.2128,-1.216,-1.2195,-1.2206,-1.2208,-1.2208,-1.2208,-1.221,-1.2231,-1.2232,-1.2215,-1.2215,-1.2215,0,0,-1.1775,-1.1807,-1.1823,-1.1873,-1.1899,-1.1928,-1.1939,-1.1969,-1.1991,-1.2017,-1.2054,-1.2077,-1.2116,-1.2152,-1.217,-1.2172,-1.2218,-1.221,-1.2209,-1.2212,-1.2232,-1.2234,-1.2235,-1.2216,-1.2216,-1.2216,0,0,-1.1786,-1.1812,-1.1838,-1.1864,-1.1904,-1.1927,-1.1933,-1.1977,-1.1993,-1.2031,-1.2051,-1.2078,-1.2133,-1.2159,-1.218,-1.2201,-1.2215,-1.221,-1.221,-1.2229,-1.2231,-1.2232,-1.2239,-1.2242,-1.2213,-1.2213,-1.2213,0,-1.1778,-1.1822,-1.185,-1.1879,-1.19,-1.1925,-1.1951,-1.1975,-1.2023,-1.2038,-1.204,-1.2109,-1.2137,-1.218,-1.2185,-1.2201,-1.2209,-1.2205,-1.2228,-1.223,-1.2232,-1.2239,-1.2241,-1.2212,-1.2212,-1.2212,-1.2212,0,-1.181,-1.184,-1.1856,-1.1901,-1.1925,-1.1953,-1.1985,-1.2006,-1.2022,-1.2046,-1.2084,-1.2118,-1.2157,-1.2169,-1.2185,-1.2214,-1.2214,-1.2222,-1.2224,-1.2232,-1.2239,-1.2242,-1.2211,-1.2211,-1.2211,-1.2211,0,0,-1.1807,-1.1867,-1.1873,-1.1893,-1.1939,-1.1963,-1.1992,-1.203,-1.2047,-1.2079,-1.2104,-1.215,-1.2157,-1.2181,-1.2201,-1.2218,-1.2231,-1.2223,-1.2224,-1.2223,-1.2265,-1.2259,-1.2262,-1.2241,-1.2242,-1.2242,-1.2262,0,-1.1824,-1.1875,-1.1902,-1.1943,-1.1971,-1.1995,-1.202,-1.2051,-1.2074,-1.2101,-1.2127,-1.2159,-1.2166,-1.218,-1.2198,-1.2226,-1.224,-1.2225,-1.2265,-1.2266,-1.2254,-1.2266,-1.226,-1.2277,-1.2265,-1.2266,-1.2266,0,-1.1849,-1.1881,-1.1924,-1.1966,-1.1979,-1.2001,-1.2038,-1.2064,-1.21,-1.2115,-1.2141,-1.2161,-1.2193,-1.2193,-1.2237,-1.2226,-1.2244,-1.2261,-1.2262,-1.2267,-1.2266,-1.2271,-1.2283,-1.2285,-1.2271,-1.2271,-1.227,0,-1.1842,-1.1896,-1.1929,-1.1946,-1.1996,-1.2011,-1.2032,-1.2067,-1.2088,-1.2121,-1.2135,-1.2171,-1.2191,-1.2218,-1.2247,-1.2245,-1.2289,-1.2291,-1.2302,-1.2302,-1.231,-1.2309,-1.2325,-1.2322,-1.2322,-1.2322,-1.2322,0,-1.1858,-1.1883,-1.1926,-1.1946,-1.1976,-1.2006,-1.2035,-1.2058,-1.2089,-1.2115,-1.2138,-1.2162,-1.2198,-1.2226,-1.2249,-1.2282,-1.2291,-1.2305,-1.2311,-1.2303,-1.2301,-1.2315,-1.2314,-1.2323,-1.2323,-1.2323,-1.2323,0,-1.1855,-1.1885,-1.1922,-1.1966,-1.1978,-1.1997,-1.2035,-1.2056,-1.208,-1.2112,-1.2121,-1.2159,-1.2194,-1.2225,-1.2271,-1.2287,-1.232,-1.2328,-1.2308,-1.2311,-1.232,-1.2319,-1.2345,-1.2351,-1.2344,-1.2344,-1.2344,0,-1.1863,-1.1883,-1.1929,-1.1947,-1.1968,-1.1997,-1.2019,-1.205,-1.2071,-1.2113,-1.2129,-1.2165,-1.2195,-1.225,-1.2282,-1.2317,-1.2325,-1.2332,-1.2331,-1.2322,-1.2325,-1.2323,-1.2326,-1.2332,-1.2332,-1.2332,-1.2331,0,-1.1873,-1.1887,-1.1916,-1.1951,-1.1976,-1.2005,-1.2035,-1.2049,-1.2085,-1.2109,-1.2144,-1.2167,-1.2214,-1.225,-1.2289,-1.2312,-1.2328,-1.2332,-1.2336,-1.2328,-1.2316,-1.2322,-1.2307,-1.2331,-1.2331,-1.2331,-1.2331,-1.2331,-1.1876,-1.1895,-1.1929,-1.1962,-1.1987,-1.2015,-1.2036,-1.2063,-1.2093,-1.2133,-1.2149,-1.2185,-1.222,-1.2274,-1.2297,-1.2326,-1.2329,-1.2335,-1.2337,-1.2338,-1.2337,-1.2311,-1.2333,-1.2333,-1.2333,-1.2333,-1.2333,0,-1.1887,-1.1911,-1.194,-1.1981,-1.2006,-1.2019,-1.2052,-1.2073,-1.2104,-1.2135,-1.2165,-1.2205,-1.224,-1.2275,-1.2311,-1.2328,-1.2336,-1.2336,-1.2335,-1.234,-1.2332,-1.2324,-1.2329,-1.2329,-1.2329,-1.2329,-1.2329,-1.2329,-1.1896,-1.1928,-1.1946,-1.1992,-1.2016,-1.205,-1.2068,-1.2094,-1.2119,-1.2163,-1.2192,-1.2214,-1.2247,-1.2286,-1.2319,-1.2328,-1.234,-1.2339,-1.235,-1.2341,-1.2341,-1.2341,-1.2334,-1.2341,-1.2341,-1.2356,-1.2356,-1.2356]},{"header":{"parameterUnit":"m.s-1","parameterCategory":1,"la1":30.2991,"la2":30.254,"lo1":-89.0895,"lo2":-89.0444,"dy":0.0017,"dx":0.0017,"nx":28,"ny":28,"refTime":"2024-03-30T03:00:00:Z","depth":0,"parameterNumber":3,"parameterNumberName":"V-component_of_WINDS"},"data":[0,0,0,0,0,0,0,0,0,0,0,0,0,0,0,0,0,0,0,0,0,0,0,0,0,0,0,0,0,0,0,0,0,0,0,0,0,0,0,0,0,0,0,0,0,0,0,0,0,0,0,0,0,0,0,0,0,0,3.2444,3.2445,0,3.2525,3.2526,3.2527,3.2528,3.2527,3.2526,3.2525,3.2612,3.2615,3.2618,0,0,0,0,0,0,0,0,0,0,0,0,0,3.2292,3.2295,3.2444,3.2445,3.2446,3.2525,3.2526,3.2527,3.2528,3.2527,3.2526,3.2525,3.2611,3.2615,3.2619,0,0,0,0,0,0,0,0,0,0,0,0,0,3.2364,3.2296,3.2443,3.2456,3.2458,3.2525,3.2526,3.2527,3.2529,3.2527,3.2526,3.2524,3.261,3.2614,3.2619,3.268,0,0,3.2634,3.2636,0,0,0,0,0,0,0,0,3.236,3.237,3.2453,3.2455,3.2457,3.2515,3.2504,3.2579,3.2529,3.2502,3.2525,3.2523,3.2581,3.2588,3.2607,3.2684,3.2688,3.2635,3.2638,3.264,3.2641,0,0,0,0,0,0,0,3.2355,3.2367,3.2476,3.2454,3.2457,3.2458,3.2467,3.2519,3.2549,3.2504,3.2504,3.2514,3.2582,3.2602,3.2609,3.2689,3.2634,3.2639,3.2642,3.2644,3.2822,3.2824,0,0,0,0,0,0,3.2347,3.2362,3.2473,3.2478,3.2404,3.2462,3.2472,3.2498,3.2549,3.2555,3.2515,3.2514,3.2595,3.2603,3.2612,3.2688,3.264,3.2644,3.2647,3.282,3.2822,3.2824,0,0,0,0,0,0,3.2344,3.2357,3.247,3.242,3.2435,3.2466,3.2496,3.25,3.2521,3.2557,3.2563,3.253,3.2594,3.2605,3.2663,3.2691,3.2646,3.2651,3.2818,3.2821,3.2823,3.2839,0,0,0,0,0,0,3.234,3.2356,3.2379,3.2421,3.2437,3.2519,3.2498,3.2503,3.2529,3.2528,3.2572,3.2578,3.2593,3.2656,3.2668,3.2697,3.2655,3.2816,3.2819,3.2823,3.2836,3.2842,3.2847,0,0,0,0,0,3.2334,3.2381,3.238,3.2393,3.2467,3.252,3.253,3.2546,3.2531,3.2555,3.2578,3.2577,3.2686,3.2662,3.2676,3.2706,3.2814,3.2818,3.2822,3.2834,3.2841,3.2847,0,0,0,0,0,0,3.2342,3.2386,3.2386,3.2447,3.248,3.2521,3.2551,3.2552,3.2591,3.2588,3.2607,3.2617,3.2675,3.2696,3.2669,3.2768,3.2748,3.2755,3.2752,3.2759,3.2764,3.2759,3.2659,0,0,0,0,0,3.2351,3.239,3.2427,3.2477,3.2493,3.2519,3.2543,3.2552,3.2588,3.2602,3.2629,3.2664,3.2707,3.2734,3.2775,3.2839,3.285,3.2867,3.2872,3.2876,3.2882,3.2919,3.2928,3.2838,3.2838,3.2838,0,0,3.237,3.2398,3.2422,3.2479,3.2506,3.2547,3.2531,3.2575,3.2606,3.2609,3.2665,3.2687,3.2727,3.2789,3.2818,3.2809,3.2909,3.2881,3.2884,3.2889,3.2924,3.2933,3.294,3.284,3.284,3.284,0,0,3.2425,3.245,3.2495,3.2521,3.2561,3.2578,3.2589,3.263,3.2644,3.27,3.2703,3.2741,3.2813,3.2842,3.2866,3.2932,3.2933,3.2945,3.2973,3.3008,3.3015,3.3022,3.3046,3.3055,3.295,3.2951,3.2951,0,3.2443,3.2504,3.2518,3.2562,3.2588,3.2591,3.2637,3.2663,3.2714,3.2732,3.2721,3.2812,3.2839,3.2908,3.2924,3.2943,3.2957,3.294,3.3013,3.3019,3.3026,3.3049,3.3058,3.2952,3.2952,3.2951,3.2951,0,3.2525,3.2568,3.2599,3.2648,3.2677,3.2722,3.2744,3.2772,3.2778,3.2797,3.2855,3.2888,3.2936,3.2953,3.296,3.3023,3.3016,3.3009,3.2989,3.3035,3.3058,3.3067,3.2954,3.2953,3.2953,3.2952,0,0,3.2589,3.2644,3.2655,3.2678,3.2722,3.2755,3.2801,3.2846,3.2871,3.2906,3.2946,3.3006,3.3,3.3027,3.3037,3.3068,3.312,3.3057,3.3059,3.3069,3.3193,3.3199,3.3209,3.312,3.3122,3.3123,3.319,0,3.2649,3.2729,3.2743,3.2813,3.2853,3.2856,3.2896,3.2928,3.2947,3.2984,3.3005,3.3048,3.3036,3.3052,3.3083,3.3107,3.3145,3.3102,3.3159,3.3161,3.3149,3.3221,3.3227,3.3288,3.3199,3.32,3.3201,0,3.2731,3.2767,3.2841,3.288,3.2897,3.2933,3.2976,3.3011,3.3048,3.3059,3.309,3.3097,3.3145,3.3123,3.3191,3.3161,3.3185,3.3201,3.3203,3.321,3.3184,3.323,3.3308,3.3317,3.3215,3.3214,3.3213,0,3.277,3.2838,3.2891,3.291,3.2957,3.2982,3.3002,3.3037,3.3064,3.3102,3.312,3.3163,3.3188,3.3222,3.3241,3.3222,3.3308,3.3287,3.332,3.332,3.3339,3.3338,3.3422,3.3352,3.3352,3.3352,3.3352,0,3.2837,3.2883,3.291,3.2943,3.2994,3.301,3.3061,3.3081,3.3112,3.315,3.3156,3.3191,3.3214,3.3253,3.3268,3.3323,3.3334,3.3345,3.3349,3.3345,3.3344,3.3362,3.3359,3.3355,3.3354,3.3354,3.3353,0,3.2891,3.2911,3.2969,3.3008,3.3019,3.3055,3.3089,3.3121,3.3139,3.3187,3.32,3.3229,3.3275,3.3297,3.3355,3.3365,3.3428,3.3428,3.3415,3.3417,3.3449,3.3446,3.3549,3.3564,3.3483,3.3484,3.3485,0,3.2933,3.2968,3.301,3.3035,3.3056,3.3097,3.3123,3.314,3.3169,3.3213,3.3241,3.3287,3.3325,3.34,3.3427,3.3471,3.3474,3.3507,3.348,3.3476,3.3475,3.3474,3.3478,3.3512,3.3512,3.3513,3.3514,0,3.3005,3.3013,3.3051,3.3093,3.3124,3.3158,3.3192,3.3212,3.3235,3.3266,3.3313,3.3342,3.3401,3.3448,3.3494,3.3517,3.352,3.3521,3.3532,3.3529,3.352,3.3527,3.3429,3.3519,3.3519,3.3518,3.3518,3.3518,3.3055,3.3087,3.3121,3.3163,3.319,3.3221,3.3254,3.3275,3.3314,3.3363,3.337,3.3421,3.3457,3.352,3.3544,3.3585,3.3577,3.3592,3.3596,3.3599,3.3602,3.3513,3.3593,3.3593,3.3593,3.3593,3.3593,0,3.3129,3.3151,3.319,3.3236,3.3269,3.3267,3.3304,3.3333,3.3376,3.3409,3.3446,3.3501,3.3546,3.3576,3.3623,3.3649,3.3652,3.3661,3.366,3.3665,3.3605,3.3592,3.3658,3.3658,3.3658,3.3658,3.3658,3.3658,3.3172,3.3225,3.3237,3.3303,3.3326,3.3374,3.3395,3.3424,3.3451,3.3511,3.3548,3.3567,3.36,3.3648,3.369,3.3698,3.3715,3.3725,3.3733,3.3676,3.3669,3.3663,3.3651,3.3728,3.3728,3.3789,3.379,3.379]}]]